Content
SEND FEEDBACK

Daily
Averages
Monthly
Summary
Mexico

PUEBLA, PUEBLA


Home > North America > Mexico > Puebla
Elevation: 7104 feet     Latitude: 19 02N     Longitude: 098 12W

WEATHER
 
SELECT A DAY
Number of Records: 121,150;   Date Range: 1/1/95 - 9/15/14
 
SHARE

PRINT THIS DATA

[ ← Previous Day ]
WEATHER ALMANAC - APRIL 10, 2013
[ Next Day → ]
[ °C ]   °F
Weather ElementAverageHighLow
Temperature68.4 °F85 °F (3:40 pm)46.4 °F (6:14 am)
Dewpoint32.3 °F44 °F (9:50 am)17.6 °F (5:48 pm)
Humidity26.9 %66 % (6:14 am)11 % (3:40 pm)
Barometer30.04 in30.27 in (9:43 am)29.48 in (6:40 pm)
Wind Speed9.3 mph24.2 mph (5:48 pm)
Wind Gust35.7 mph (4:41 pm)
Weather ElementAverage
Visibility7.2 mi
Wind DirectionSSW (208.4 °)

Weather ElementTotal
Precipitation---
Cooling Degree Days0.7 (Base 65)
Growing Degree Days15.7 (Base 50)
Averaged from 26 records on April 10, 2013
WEATHER CONDITIONS BREAKOUT
WIND DIRECTION BREAKOUT
WEATHER BY HOUR - APRIL 10, 2013
[ °C ]   °F
Local TimeTemperatureDewpointHumidityBarometerVisibilityWind DirectionWind SpeedGust SpeedPrecipitationEventsConditions
3:45 AM59.0 °F28.0 °F20 %29.68 in3.0 miENE (60°)2.2 mphPartly Cloudy
6:14 AM46.4 °F35.6 °F66 %30.22 in7.0 miNNW (330°)6.9 mphScattered Clouds
6:42 AM48.2 °F33.8 °F58 %30.22 in7.0 miNW (320°)6.9 mphMostly Cloudy
6:45 AM29.0 °F29.73 in3.0 miEast (90°)2.2 mphHaze
7:43 AM48.2 °F33.8 °F58 %30.23 in7.0 miNW (320°)6.9 mphMostly Cloudy
8:44 AM53.6 °F32.0 °F44 %30.25 in7.0 miNW (320°)8.1 mphMostly Cloudy
9:43 AM62.6 °F32.0 °F32 %30.27 in7.0 miNorth (360°)2.3 mphMostly Cloudy
9:50 AM66.0 °F44.0 °F33 %29.82 in6.0 miESE (120°)2.2 mphClear
10:40 AM68.0 °F32.0 °F26 %30.27 in7.0 miSE (140°)5.8 mphMostly Cloudy
11:41 AM71.6 °F28.4 °F20 %30.25 in7.0 miWSW (250°)3.5 mphMostly Cloudy
12:40 PM78.0 °F44.0 °F19 %29.77 in3.0 miSSE (160°)2.2 mphHaze
12:40 PM75.2 °F33.8 °F22 %30.23 in8.0 miSSE (160°)16.1 mphScattered Clouds
1:42 PM77.0 °F37.4 °F24 %30.20 in8.0 miSSW (210°)15.0 mphScattered Clouds
2:40 PM77.0 °F37.4 °F24 %30.17 in9.0 miSouth (180°)13.8 mph25.3 mphScattered Clouds
3:40 PM85.0 °F39.0 °F11 %29.60 in6.0 miSSE (160°)2.2 mphHaze
3:42 PM80.6 °F32.0 °F17 %30.13 in9.0 miSouth (170°)15.0 mphScattered Clouds
4:41 PM78.8 °F26.6 °F15 %30.10 in9.0 miSouth (170°)23.0 mph35.7 mphScattered Clouds
5:48 PM77.0 °F17.6 °F11 %30.09 in9.0 miSouth (190°)24.2 mphMostly Cloudy
6:40 PM80.0 °F37.0 °F12 %29.48 in6.0 miSSE (160°)4.5 mphHaze
6:40 PM75.2 °F23.0 °F14 %30.09 in10.0 miSouth (190°)19.6 mph31.1 mphMostly Cloudy
7:40 PM71.6 °F28.4 °F20 %30.11 in10.0 miSSW (210°)21.9 mphMostly Cloudy
8:40 PM69.8 °F30.2 °F23 %30.14 in9.0 miSouth (180°)16.1 mphScattered Clouds
9:41 PM66.2 °F28.4 °F24 %30.16 in9.0 miSouth (180°)11.5 mphScattered Clouds
9:45 PM71.0 °F32.0 °F14 %29.49 in3.0 miCalm
10:40 PM64.4 °F32.0 °F30 %30.18 in9.0 miWest (280°)6.9 mphScattered Clouds
11:40 PM59.0 °F32.0 °F36 %30.20 in9.0 miWNW (300°)2.3 mphPartly Cloudy
Hourly data recorded from MMPB, located miles away from Puebla, Puebla







STORIES FROM OUR PARTNERS